Wind_Speed
7 6 5 5 4 4 5 5 6 7 8 8 10 11 12 13 14 14 15 17 17 18 18 18 17 17 17 16 14 13 12 11 10 9 10 11 11 12 14 16 17 18 18
6 5 5 5 5 5 5 6 7 7 8 9 10 11 12 13 13 14 15 16 17 18 18 18 17 17 17 16 15 14 12 10 9 8 9 9 10 11 12 14 16 17 18
5 5 4 4 4 5 6 7 7 8 8 9 10 11 12 13 13 14 15 16 17 18 18 18 17 17 17 16 15 14 12 10 9 8 7 8 9 10 11 12 15 17 18
5 5 4 4 4 5 6 6 7 8 8 9 9 11 12 12 13 14 15 16 17 18 17 17 17 17 17 17 15 13 12 10 9 8 7 7 7 9 10 11 14 16 17
5 5 4 4 4 5 5 6 7 7 8 9 9 11 12 13 13 14 15 15 17 17 17 17 17 16 16 16 15 13 12 10 9 8 7 7 7 7 9 10 12 14 15
5 5 4 3 3 4 5 6 7 7 8 9 9 11 12 13 13 14 15 15 16 17 17 17 16 16 16 16 15 13 12 10 9 8 7 7 6 7 8 9 11 12 14
4 4 3 3 3 4 5 6 7 8 8 9 10 11 12 13 13 14 15 15 16 16 17 17 16 16 15 15 14 13 12 10 9 9 8 7 7 7 7 8 10 11 13
3 3 3 3 4 5 6 7 8 9 9 10 10 11 12 13 13 14 15 15 16 16 16 16 16 15 15 14 14 14 13 11 10 9 8 8 7 7 7 8 9 10 13
3 3 3 4 5 6 7 8 9 9 10 10 11 12 12 13 14 14 15 15 16 16 16 16 15 15 15 14 14 14 13 12 11 10 9 8 8 8 8 8 9 10 12
3 3 4 5 5 6 7 8 9 10 10 11 12 12 13 14 14 14 15 15 15 16 16 16 15 15 15 14 14 14 13 13 12 11 10 9 9 8 8 8 8 9 10
4 4 5 6 6 7 8 9 10 11 11 12 12 13 14 14 15 15 15 16 16 15 16 16 15 15 15 15 14 14 14 13 12 11 10 10 9 9 8 8 8 9 10
5 5 6 6 7 8 8 9 10 11 12 12 13 13 14 14 15 15 15 16 16 16 15 15 15 15 15 15 15 14 14 13 13 12 11 10 9 9 9 8 8 9 10
5 6 6 7 8 8 9 10 11 11 12 13 13 14 15 15 15 15 16 16 16 16 16 15 15 15 15 15 15 14 14 13 13 13 12 11 10 9 9 8 8 9 10
6 7 8 8 9 10 10 11 12 13 14 14 15 15 15 16 16 16 16 16 16 17 16 16 16 16 16 16 15 15 14 14 13 13 13 12 11 11 10 9 9 9 10
9 9 10 10 11 12 13 13 14 14 15 15 16 16 17 17 17 17 17 17 17 17 17 17 17 17 17 16 16 16 15 15 14 14 13 12 12 12 11 11 10 10 10
11 11 12 13 13 14 15 16 16 16 17 17 17 17 18 19 19 19 19 19 19 19 19 19 19 18 18 18 18 17 17 16 16 15 14 13 13 13 12 12 11 11 11
13 14 14 15 15 16 17 17 17 18 19 20 20 21 20 21 21 21 21 21 21 21 21 20 20 20 20 20 20 19 18 18 17 17 16 15 15 14 14 14 13 12 12
15 16 16 17 18 19 19 20 20 20 21 22 23 23 23 23 23 23 24 24 23 23 23 23 22 22 22 22 22 21 21 20 19 19 18 17 17 16 16 15 14 14 14
17 18 19 20 20 21 22 22 23 23 24 24 25 25 25 25 26 26 26 26 26 26 25 25 25 25 24 24 24 24 24 23 22 21 21 20 19 19 18 17 16 16 16
19 20 22 22 23 24 24 25 25 26 27 28 28 27 28 28 28 29 29 29 29 29 29 28 27 27 27 27 26 26 25 25 24 24 23 22 21 21 21 20 19 19 18
22 23 24 25 26 27 27 28 28 29 30 31 31 31 31 32 32 32 32 32 32 32 32 32 31 30 30 30 29 28 27 27 26 26 25 24 23 23 23 22 22 21 21
26 26 27 28 29 30 30 31 32 33 34 34 35 35 35 35 35 35 35 34 35 35 34 34 34 34 33 32 31 31 30 30 29 28 28 27 26 26 26 26 25 25 24
29 30 30 31 32 33 34 35 35 36 37 38 38 38 38 38 38 38 38 37 37 37 37 37 37 36 35 34 34 34 34 33 33 32 31 30 29 28 28 29 28 28 27
32 33 34 35 36 37 38 39 39 40 41 41 41 41 41 41 41 41 41 41 41 41 40 40 39 39 38 38 38 37 37 36 35 35 34 33 32 31 31 31 31 31 30
35 36 38 39 40 41 41 43 43 44 44 44 44 44 44 44 44 44 44 44 44 44 44 43 43 42 42 41 41 40 39 38 38 38 37 37 36 35 34 34 33 33 33
38 39 41 42 43 44 45 46 47 48 47 47 47 47 47 46 47 47 47 47 47 47 47 46 46 45 44 43 43 42 42 41 41 40 39 39 38 38 37 37 36 36 35
Wind_Direction
211 221 230 240 255 278 295 307 317 324 329 333 337 340 342 342 344 345 345 344 344 343 343 343 343 343 341 337 332 328 322 313 302 291 279 270 262 254 248 241 235 233 232
205 225 240 244 258 277 293 307 312 319 325 329 333 337 339 341 342 344 344 344 344 344 344 345 344 344 343 342 338 334 328 318 308 298 286 273 263 257 251 242 235 233 231
213 222 240 255 261 277 294 307 310 317 320 324 330 335 336 338 340 342 342 343 344 345 345 345 345 345 346 346 343 339 335 327 317 307 298 284 268 260 254 244 236 233 232
228 228 242 259 268 282 296 307 311 315 317 321 328 332 335 336 337 339 340 342 344 345 345 345 345 345 345 346 346 342 339 333 325 315 304 291 276 261 256 248 239 236 232
220 224 242 255 271 288 301 311 316 319 320 321 328 333 334 334 335 337 339 341 344 345 346 346 346 347 347 346 347 346 343 338 331 323 313 302 282 266 259 250 243 237 235
220 228 237 255 276 294 309 320 323 324 323 323 327 331 333 334 335 337 338 340 343 345 346 346 347 348 350 350 350 348 346 344 339 332 323 314 297 278 268 254 246 240 236
225 234 238 257 277 292 307 316 322 322 321 322 325 328 330 331 333 335 337 339 342 344 346 347 348 349 350 352 353 352 350 345 341 338 331 323 312 291 279 264 251 243 237
228 236 248 266 281 292 302 310 317 318 318 319 320 322 325 328 331 332 335 337 339 342 345 346 347 349 350 351 352 352 350 346 341 336 329 322 314 302 285 273 259 248 241
236 247 264 277 287 294 302 307 312 315 315 316 317 318 320 323 326 329 332 335 338 340 342 344 345 347 348 348 348 349 348 344 338 332 327 321 314 305 290 281 268 255 246
250 266 278 289 293 298 304 308 312 313 314 314 315 316 317 318 321 324 328 330 333 336 339 342 343 344 344 344 344 345 344 342 338 332 326 321 313 303 291 281 273 260 250
256 272 285 294 296 302 309 310 313 314 314 313 314 315 316 318 319 321 323 326 329 332 335 337 339 341 341 340 340 340 341 339 336 332 327 322 316 306 297 286 274 264 255
267 275 286 295 299 303 307 309 311 313 314 314 314 314 314 315 317 318 320 322 324 326 329 332 334 335 336 336 336 336 336 335 333 330 326 321 317 309 303 293 279 270 260
272 278 287 295 299 302 306 310 311 314 314 315 316 316 315 315 315 316 318 319 321 323 324 326 329 329 329 331 332 333 334 331 328 326 324 322 315 308 304 298 287 276 265
277 284 291 294 297 300 302 306 309 312 314 314 314 314 314 314 314 314 314 315 317 319 320 322 324 324 324 323 323 325 327 327 325 323 321 318 313 308 303 297 289 281 273
281 286 290 293 295 298 300 303 306 308 310 312 312 311 311 311 311 311 310 310 311 312 314 316 317 319 319 319 318 318 318 320 319 319 318 315 309 303 299 295 288 282 276
282 285 287 289 293 296 297 300 301 305 307 308 309 308 308 308 308 307 307 308 307 307 308 309 310 312 313 313 313 313 312 312 312 312 312 310 306 302 297 294 286 280 273
281 283 286 289 293 296 298 299 300 302 304 304 305 306 306 306 305 305 305 304 304 304 303 303 304 305 307 307 307 307 307 307 307 306 305 303 300 298 294 292 284 277 272
279 281 284 287 290 293 296 298 298 300 301 301 301 301 301 302 302 301 301 301 301 300 299 298 298 299 300 301 301 301 301 301 302 301 300 297 294 292 289 288 283 278 274
281 282 284 286 289 291 294 296 297 298 299 300 300 298 298 298 299 299 298 297 297 296 296 295 294 294 295 295 295 295 296 296 296 296 295 292 289 286 284 283 279 276 274
283 285 286 287 288 290 291 294 295 296 297 298 299 297 297 297 297 297 296 295 294 293 293 292 292 292 292 292 292 292 291 291 291 290 289 287 285 282 280 278 277 274 272
286 286 286 287 288 289 290 292 294 295 295 296 296 295 295 295 295 295 294 294 292 291 290 290 290 289 289 289 289 288 287 287 287 287 286 285 282 280 278 276 274 272 271
286 287 287 288 288 289 289 291 293 294 295 295 294 293 293 293 293 293 292 292 291 290 289 288 287 288 287 286 285 284 284 284 283 283 282 282 281 278 275 273 272 271 270
287 287 288 288 288 289 290 291 292 292 293 293 293 292 292 292 292 291 291 290 290 289 288 287 286 285 284 283 282 282 281 281 280 279 278 277 277 276 274 272 270 269 268
287 288 288 288 288 289 289 290 291 291 291 292 292 291 290 290 290 290 290 290 289 288 287 287 285 283 281 280 279 279 279 278 277 276 275 274 273 272 272 270 268 266 266
288 288 288 289 289 289 290 290 290 290 290 290 290 290 290 289 289 288 288 288 288 288 287 286 285 283 281 279 278 278 277 277 275 274 273 272 271 271 270 269 267 265 264
288 289 289 290 290 291 291 290 290 290 289 289 289 289 289 289 288 288 287 287 287 286 286 285 283 282 281 279 277 276 276 276 274 273 272 271 270 269 268 267 266 264 262
Height
5850 5851 5852 5853 5855 5855 5856 5856 5856 5856 5856 5855 5854 5853 5851 5850 5848 5846 5844 5841 5838 5835 5832 5829 5826 5823 5820 5817 5814 5812 5810 5809 5809 5809 5809 5810 5811 5812 5814 5816 5819 5822 5825
5849 5850 5851 5852 5854 5854 5855 5855 5855 5855 5855 5854 5853 5852 5850 5849 5847 5845 5843 5840 5837 5834 5831 5828 5824 5821 5818 5815 5812 5810 5808 5807 5806 5806 5807 5807 5809 5809 5811 5813 5816 5819 5822
5848 5850 5851 5852 5853 5854 5854 5854 5854 5854 5853 5853 5852 5851 5849 5848 5846 5844 5841 5839 5836 5833 5829 5826 5823 5820 5817 5814 5811 5808 5806 5805 5805 5804 5805 5805 5806 5807 5809 5810 5812 5815 5818
5848 5849 5850 5851 5852 5852 5853 5853 5852 5852 5852 5851 5850 5849 5848 5846 5845 5843 5840 5838 5835 5832 5828 5825 5822 5819 5816 5813 5810 5807 5805 5804 5803 5803 5803 5804 5804 5805 5806 5808 5809 5811 5814
5847 5848 5849 5850 5851 5851 5851 5851 5851 5851 5850 5850 5849 5848 5847 5845 5843 5841 5839 5837 5834 5831 5828 5825 5821 5818 5815 5812 5810 5807 5805 5804 5803 5802 5802 5802 5802 5803 5804 5805 5807 5809 5811
5846 5847 5848 5849 5850 5850 5850 5850 5850 5849 5849 5848 5847 5846 5845 5844 5842 5840 5838 5836 5833 5830 5827 5824 5821 5818 5815 5812 5809 5807 5805 5803 5802 5802 5801 5801 5801 5801 5802 5803 5804 5806 5808
5846 5847 5848 5848 5849 5849 5849 5849 5849 5848 5847 5847 5846 5845 5843 5842 5840 5839 5837 5834 5832 5829 5826 5823 5820 5817 5815 5812 5809 5807 5805 5803 5802 5801 5800 5800 5800 5800 5800 5801 5802 5804 5806
5845 5846 5847 5847 5848 5848 5848 5848 5847 5847 5846 5845 5844 5843 5842 5840 5839 5837 5835 5833 5831 5828 5825 5823 5820 5817 5814 5812 5809 5807 5805 5803 5802 5801 5800 5799 5798 5798 5799 5799 5800 5802 5803
5844 5845 5845 5846 5846 5846 5846 5846 5845 5845 5844 5843 5842 5841 5840 5838 5837 5835 5833 5832 5829 5827 5824 5822 5819 5817 5814 5811 5809 5807 5805 5803 5801 5800 5799 5798 5797 5796 5797 5797 5798 5799 5800
5843 5844 5844 5844 5845 5845 5844 5844 5843 5843 5842 5841 5840 5839 5838 5836 5835 5833 5832 5830 5828 5825 5823 5821 5818 5816 5813 5811 5809 5807 5804 5802 5801 5799 5798 5797 5796 5795 5795 5795 5795 5796 5798
5842 5843 5843 5843 5843 5843 5843 5842 5841 5841 5840 5839 5838 5837 5836 5834 5833 5831 5830 5828 5826 5824 5822 5819 5817 5815 5813 5810 5808 5806 5804 5802 5800 5798 5797 5795 5795 5794 5793 5793 5793 5794 5795
5841 5842 5842 5842 5841 5841 5841 5840 5839 5839 5838 5837 5835 5834 5833 5832 5830 5829 5827 5826 5824 5822 5820 5818 5816 5814 5811 5809 5807 5805 5803 5801 5799 5797 5796 5794 5793 5792 5792 5791 5791 5791 5792
5840 5840 5840 5840 5839 5839 5839 5838 5837 5836 5835 5834 5833 5832 5830 5829 5828 5826 5825 5823 5821 5820 5818 5816 5814 5812 5810 5808 5806 5804 5802 5800 5798 5796 5795 5793 5792 5791 5790 5789 5789 5789 5789
5838 5838 5838 5838 5837 5837 5836 5835 5834 5834 5833 5831 5830 5829 5827 5826 5825 5823 5821 5820 5818 5817 5815 5813 5811 5810 5808 5806 5804 5802 5800 5798 5796 5795 5793 5791 5790 5789 5788 5787 5787 5786 5787
5836 5835 5835 5835 5835 5834 5833 5832 5832 5831 5830 5828 5827 5826 5824 5823 5821 5820 5818 5817 5815 5813 5812 5810 5808 5807 5805 5803 5801 5799 5798 5796 5794 5793 5791 5789 5788 5787 5786 5785 5784 5784 5784
5833 5833 5832 5832 5831 5831 5830 5829 5828 5827 5826 5825 5823 5822 5820 5819 5817 5816 5814 5813 5811 5810 5808 5807 5805 5803 5802 5800 5798 5796 5794 5793 5791 5790 5788 5787 5785 5784 5783 5782 5781 5781 5781
5829 5829 5829 5828 5828 5827 5826 5825 5824 5823 5822 5820 5819 5818 5816 5814 5813 5811 5809 5808 5806 5805 5804 5802 5801 5799 5797 5796 5794 5792 5790 5789 5788 5786 5785 5783 5782 5781 5780 5779 5778 5778 5778
5825 5825 5825 5824 5823 5822 5821 5820 5819 5818 5817 5815 5814 5812 5811 5809 5807 5806 5804 5802 5801 5799 5798 5797 5795 5794 5792 5791 5789 5787 5786 5784 5783 5781 5780 5779 5778 5777 5776 5775 5774 5774 5774
5821 5821 5820 5819 5818 5817 5816 5815 5814 5812 5811 5809 5808 5806 5804 5803 5801 5799 5797 5796 5794 5793 5791 5790 5789 5787 5786 5784 5783 5781 5780 5778 5777 5776 5775 5774 5773 5772 5771 5770 5770 5770 5770
5816 5815 5814 5813 5812 5811 5810 5809 5807 5806 5804 5803 5801 5799 5797 5795 5794 5792 5790 5788 5786 5785 5784 5782 5781 5780 5778 5777 5775 5773 5772 5771 5770 5769 5768 5767 5766 5766 5765 5765 5765 5765 5765
5810 5809 5808 5807 5806 5804 5803 5802 5800 5798 5797 5795 5793 5791 5789 5787 5785 5783 5781 5779 5777 5776 5774 5773 5772 5771 5769 5768 5766 5765 5763 5763 5762 5761 5760 5759 5759 5758 5758 5758 5758 5758 5758
5804 5802 5801 5800 5798 5797 5795 5794 5792 5790 5788 5786 5784 5781 5779 5776 5774 5772 5770 5768 5767 5765 5764 5762 5761 5760 5759 5758 5756 5755 5754 5753 5753 5752 5752 5751 5750 5750 5749 5749 5750 5750 5750
5796 5794 5793 5791 5790 5788 5786 5784 5782 5780 5778 5775 5773 5770 5768 5765 5763 5761 5759 5757 5755 5754 5752 5751 5750 5749 5748 5747 5746 5745 5744 5743 5742 5742 5742 5741 5741 5741 5740 5740 5741 5741 5741
5787 5785 5784 5782 5780 5778 5776 5773 5771 5769 5766 5764 5761 5758 5756 5753 5751 5749 5747 5745 5743 5741 5740 5738 5737 5736 5735 5734 5733 5732 5731 5731 5730 5730 5730 5730 5730 5730 5730 5730 5731 5731 5732
5777 5775 5773 5771 5769 5767 5764 5761 5759 5756 5754 5751 5748 5746 5743 5741 5738 5736 5734 5731 5730 5727 5726 5724 5722 5721 5721 5720 5719 5718 5718 5717 5717 5717 5717 5718 5718 5718 5719 5719 5720 5720 5721
5766 5764 5762 5759 5757 5754 5751 5748 5745 5742 5740 5737 5735 5732 5729 5726 5724 5722 5720 5717 5715 5713 5710 5708 5707 5706 5705 5705 5704 5704 5703 5703 5702 5702 5703 5704 5704 5705 5706 5706 5707 5708 5709